Volver al catálogo

STARLINK-4117

ActivoComunicacionesVLEO
NORAD 53169·PAYLOAD·🇺🇸 United States

Lanzado Jul 17, 2022 desde Cape Canaveral Space Force Station

Loading…

Próximos Pases (próximas 24 horas)

TLE

ActualizadoSource: CelesTrak SupGP

Época: Sep 15, 2026, 01:57 UTC

1 53169C 22083AP  26258.08173611 -.00009040  00000+0 -29074-3 0  2586
2 53169  53.1593   8.0449 0001033  90.6319   6.0560 15.31702481    12

Sigue STARLINK-4117 en tiempo real con AllMySat

Download on the App Store